Hourly Data Report for July 13, 2021

VINELAND STATION RCS
ONTARIO
Current Station Operator: ECCC - MSC

43°11'00.000" N
79°24'00.000" W
79.20 m
6139148
71171
XVN

Download Data

Hourly Data (July 2021)
Hourly Data Report for July 13, 2021
TIME
LST
Temp Definition
°C
Dew Point Definition
°C
Rel Hum Definition
%
Precip. Amount Definition
mm

Wind Dir Definition
10's deg

Wind Spd Definition
km/h
Visibility Definition
km
Stn Press Definition
kPa
Hmdx Definition


Wind Chill Definition


Weather Definition


00:00 18.9 18.2 96 LegendMM 27 4   100.87     LegendNANA
01:00 18.9 18.3 96 LegendMM 30 6   100.88     LegendNANA
02:00 18.9 18.4 97 LegendMM 27 3   100.88     LegendNANA
03:00 18.8 18.4 97 LegendMM 24 5   100.87     LegendNANA
04:00 18.9 18.4 97 LegendMM 21 3   100.87     LegendNANA
05:00 18.7 18.3 97 LegendMM 14 3   100.90     LegendNANA
06:00 19.2 18.8 97 LegendMM 15 4   100.92     LegendNANA
07:00 20.5 18.7 89 LegendMM 1 4   100.88 27   LegendNANA
08:00 20.9 18.9 89 LegendMM 1 3   100.89 28   LegendNANA
09:00 21.3 19.4 89 LegendMM 34 4   100.90 28   LegendNANA
10:00 21.5 19.2 87 LegendMM 9 4   100.89 28   LegendNANA
11:00 26.4 21.9 76 LegendMM 20 12   100.83 36   LegendNANA
12:00 28.5 21.7 67 LegendMM 19 16   100.76 38   LegendNANA
13:00 27.8 21.7 69 LegendMM 21 20   100.69 37   LegendNANA
14:00 29.6 22.3 65 LegendMM 21 19   100.64 39   LegendNANA
15:00 29.9 22.5 65 LegendMM 21 20   100.58 40   LegendNANA
16:00 29.3 21.2 62 LegendMM 23 23   100.62 38   LegendNANA
17:00 27.9 20.1 63 LegendMM 24 23   100.58 36   LegendNANA
18:00 23.7 21.3 87 LegendMM 21 18   100.65 32   LegendNANA
19:00 22.6 20.7 89 LegendMM 21 11   100.57 31   LegendNANA
20:00 21.9 20.0 89 LegendMM 21 12   100.62 29   LegendNANA
21:00 22.0 20.1 89 LegendMM 20 12   100.59 30   LegendNANA
22:00 22.0 20.2 89 LegendMM 20 12   100.60 30   LegendNANA
23:00 22.8 19.5 82 LegendMM 22 21   100.61 30   LegendNANA

Notes on Data Quality.

Legend

  • E = Estimated
  • M = Missing
  • NA = Not Available*
  • [empty] = Indicates an unobserved value
Date modified: